SWA1792 KBWI-KMCO

Flight info

Callsign SWA1792
Flight time 1h 46m
Altitude 38000
Route TERPZ8 RRSIN GSO Q83 ROYCO Q85 LPERD GTOUT1
Aircraft B738/M-SDE2E3FGHIRWXY/LB1

Departure

Time 2026-04-23 00:30
Airport Baltimore/Washington International Thurgood Marshall Airport (KBWI)

Arrival

Time 2026-04-23 02:17
Airport Orlando International Airport (KMCO)
Time Latitude Longitude Altitude Speed Heading
2026-04-22 23:52 39.17709 -76.66907 151 ft 0 kts 236°
2026-04-23 00:19 39.17714 -76.66898 151 ft 2 kts 226°
2026-04-23 00:19 39.17726 -76.66883 151 ft 2 kts 213°
2026-04-23 00:19 39.17741 -76.66874 151 ft 2 kts 187°
2026-04-23 00:19 39.17758 -76.66875 151 ft 2 kts 164°
2026-04-23 00:20 39.17773 -76.66883 151 ft 2 kts 151°
2026-04-23 00:20 39.17781 -76.66889 151 ft 1 kts 147°
2026-04-23 00:20 39.17782 -76.66890 151 ft 0 kts 147°
2026-04-23 00:23 39.17769 -76.66878 151 ft 7 kts 143°
2026-04-23 00:23 39.17721 -76.66832 151 ft 10 kts 143°
2026-04-23 00:23 39.17654 -76.66780 149 ft 12 kts 163°
2026-04-23 00:24 39.17573 -76.66780 148 ft 12 kts 187°
2026-04-23 00:24 39.17523 -76.66820 148 ft 5 kts 226°
2026-04-23 00:24 39.17492 -76.66848 148 ft 6 kts 211°
2026-04-23 00:24 39.17470 -76.66917 148 ft 10 kts 271°
2026-04-23 00:25 39.17487 -76.67016 150 ft 12 kts 290°
2026-04-23 00:25 39.17535 -76.67096 150 ft 12 kts 321°
2026-04-23 00:25 39.17616 -76.67172 147 ft 16 kts 324°
2026-04-23 00:25 39.17708 -76.67259 146 ft 16 kts 325°
2026-04-23 00:26 39.17769 -76.67314 145 ft 16 kts 324°
2026-04-23 00:26 39.17856 -76.67395 143 ft 15 kts 323°
2026-04-23 00:26 39.17940 -76.67473 144 ft 15 kts 324°
2026-04-23 00:26 39.18022 -76.67548 145 ft 14 kts 324°
2026-04-23 00:27 39.18098 -76.67619 145 ft 13 kts 324°
2026-04-23 00:27 39.18172 -76.67687 148 ft 13 kts 324°
2026-04-23 00:27 39.18246 -76.67756 148 ft 14 kts 324°
2026-04-23 00:27 39.18331 -76.67835 147 ft 15 kts 324°
2026-04-23 00:28 39.18414 -76.67913 147 ft 14 kts 324°
2026-04-23 00:28 39.18494 -76.67986 145 ft 14 kts 324°
2026-04-23 00:28 39.18549 -76.68039 143 ft 8 kts 318°
2026-04-23 00:28 39.18569 -76.68092 143 ft 0 kts 275°
2026-04-23 00:29 39.18563 -76.68122 144 ft 7 kts 246°
2026-04-23 00:29 39.18529 -76.68161 143 ft 8 kts 198°
2026-04-23 00:29 39.18472 -76.68137 143 ft 9 kts 145°
2026-04-23 00:29 39.18243 -76.67926 148 ft 82 kts 144°
2026-04-23 00:30 39.17561 -76.67290 151 ft 157 kts 143°
2026-04-23 00:30 39.16552 -76.66333 510 ft 199 kts 144°
2026-04-23 00:30 39.15247 -76.65667 1364 ft 205 kts 175°
2026-04-23 00:30 39.13857 -76.65934 2235 ft 207 kts 210°
2026-04-23 00:31 39.12875 -76.67269 2921 ft 210 kts 250°
2026-04-23 00:31 39.12837 -76.69158 3336 ft 224 kts 288°
2026-04-23 00:31 39.13722 -76.70854 3648 ft 244 kts 317°
2026-04-23 00:31 39.15065 -76.72240 4257 ft 249 kts 320°
2026-04-23 00:32 39.16462 -76.73592 4898 ft 256 kts 322°
2026-04-23 00:32 39.17933 -76.75035 5309 ft 275 kts 319°
2026-04-23 00:32 39.19374 -76.76735 5932 ft 284 kts 310°
2026-04-23 00:32 39.20444 -76.78884 6693 ft 289 kts 294°
2026-04-23 00:33 39.20951 -76.81392 7525 ft 291 kts 279°
2026-04-23 00:33 39.21183 -76.83973 8524 ft 287 kts 278°
2026-04-23 00:33 39.21372 -76.86503 9473 ft 287 kts 278°
2026-04-23 00:33 39.21526 -76.89099 10153 ft 294 kts 276°
2026-04-23 00:34 39.21623 -76.91771 10678 ft 306 kts 277°
2026-04-23 00:34 39.21745 -76.94607 10989 ft 323 kts 276°
2026-04-23 00:34 39.21853 -76.97520 11571 ft 329 kts 276°
2026-04-23 00:34 39.21941 -77.00493 12272 ft 333 kts 275°
2026-04-23 00:35 39.22015 -77.03504 12972 ft 337 kts 275°
2026-04-23 00:35 39.22084 -77.06561 13651 ft 342 kts 275°
2026-04-23 00:35 39.22124 -77.09647 14278 ft 348 kts 270°
2026-04-23 00:35 39.21560 -77.12671 14878 ft 360 kts 249°
2026-04-23 00:36 39.20176 -77.15405 15533 ft 371 kts 231°
2026-04-23 00:36 39.18087 -77.17526 16159 ft 381 kts 217°
2026-04-23 00:36 39.15852 -77.19332 16738 ft 386 kts 216°
2026-04-23 00:36 39.13548 -77.21161 17320 ft 390 kts 216°
2026-04-23 00:37 39.11244 -77.23031 17924 ft 393 kts 217°
2026-04-23 00:37 39.08928 -77.24937 18494 ft 397 kts 216°
2026-04-23 00:37 39.06520 -77.26765 18998 ft 402 kts 213°
2026-04-23 00:37 39.04051 -77.28494 19494 ft 406 kts 212°
2026-04-23 00:38 39.01545 -77.30204 19977 ft 410 kts 212°
2026-04-23 00:38 38.99013 -77.31931 20479 ft 413 kts 212°
2026-04-23 00:38 38.96468 -77.33680 20934 ft 416 kts 212°
2026-04-23 00:38 38.93915 -77.35446 20962 ft 417 kts 212°
2026-04-23 00:39 38.91361 -77.37222 20984 ft 417 kts 212°
2026-04-23 00:39 38.88806 -77.39001 20992 ft 417 kts 212°
2026-04-23 00:39 38.86505 -77.40606 20993 ft 417 kts 212°
2026-04-23 00:39 38.83950 -77.42386 20995 ft 418 kts 212°
2026-04-23 00:40 38.81431 -77.44141 21009 ft 418 kts 212°
2026-04-23 00:40 38.78876 -77.45919 21008 ft 418 kts 212°
2026-04-23 00:40 38.76312 -77.47700 21011 ft 418 kts 212°
2026-04-23 00:40 38.73757 -77.49470 21006 ft 418 kts 211°
2026-04-23 00:41 38.71058 -77.50884 21009 ft 422 kts 200°
2026-04-23 00:41 38.68220 -77.51896 21010 ft 423 kts 197°
2026-04-23 00:41 38.65364 -77.52825 21008 ft 423 kts 197°
2026-04-23 00:41 38.62508 -77.53745 21006 ft 423 kts 197°
2026-04-23 00:42 38.59662 -77.54685 21010 ft 422 kts 198°
2026-04-23 00:42 38.56825 -77.55646 21027 ft 422 kts 198°
2026-04-23 00:42 38.53980 -77.56628 21024 ft 422 kts 198°
2026-04-23 00:42 38.51147 -77.57616 21022 ft 422 kts 198°
2026-04-23 00:43 38.48321 -77.58604 21017 ft 422 kts 198°
2026-04-23 00:43 38.45489 -77.59594 21013 ft 422 kts 198°
2026-04-23 00:43 38.42668 -77.60579 21022 ft 421 kts 198°
2026-04-23 00:43 38.39840 -77.61565 21012 ft 421 kts 198°
2026-04-23 00:44 38.37005 -77.62552 21014 ft 421 kts 198°
2026-04-23 00:44 38.34189 -77.63531 21019 ft 420 kts 198°
2026-04-23 00:44 38.31370 -77.64530 21013 ft 419 kts 201°
2026-04-23 00:44 38.28792 -77.66149 21010 ft 410 kts 220°
2026-04-23 00:45 38.26590 -77.68423 21025 ft 407 kts 224°
2026-04-23 00:45 38.24436 -77.70784 21019 ft 407 kts 225°
2026-04-23 00:45 38.22325 -77.73115 21016 ft 408 kts 225°
2026-04-23 00:45 38.20171 -77.75473 21019 ft 408 kts 224°
2026-04-23 00:46 38.18018 -77.77805 21191 ft 405 kts 224°
2026-04-23 00:46 38.15871 -77.80112 21755 ft 405 kts 224°
2026-04-23 00:46 38.13714 -77.82422 22277 ft 407 kts 224°
2026-04-23 00:46 38.11545 -77.84739 22800 ft 409 kts 224°
2026-04-23 00:47 38.09359 -77.87072 23342 ft 410 kts 224°
2026-04-23 00:47 38.07173 -77.89402 23840 ft 411 kts 224°
2026-04-23 00:47 38.04979 -77.91739 24293 ft 412 kts 224°
2026-04-23 00:47 38.02784 -77.94074 24756 ft 412 kts 224°
2026-04-23 00:48 38.00587 -77.96409 25220 ft 412 kts 225°
2026-04-23 00:48 37.98390 -77.98741 25701 ft 412 kts 225°
2026-04-23 00:48 37.96194 -78.01070 26177 ft 411 kts 225°
2026-04-23 00:48 37.94000 -78.03397 26667 ft 410 kts 225°
2026-04-23 00:49 37.91815 -78.05712 27159 ft 409 kts 225°
2026-04-23 00:49 37.89632 -78.08023 27663 ft 408 kts 225°
2026-04-23 00:49 37.87458 -78.10323 28173 ft 406 kts 225°
2026-04-23 00:49 37.85304 -78.12600 28748 ft 402 kts 226°
2026-04-23 00:50 37.83166 -78.14857 29324 ft 398 kts 226°
2026-04-23 00:50 37.81051 -78.17088 29910 ft 393 kts 226°
2026-04-23 00:50 37.78963 -78.19290 30446 ft 388 kts 226°
2026-04-23 00:50 37.76909 -78.21454 30945 ft 382 kts 226°
2026-04-23 00:51 37.74884 -78.23585 31461 ft 375 kts 226°
2026-04-23 00:51 37.72899 -78.25673 31974 ft 367 kts 226°
2026-04-23 00:51 37.70938 -78.27737 32281 ft 368 kts 227°
2026-04-23 00:51 37.68955 -78.29832 32196 ft 380 kts 226°
2026-04-23 00:52 37.66891 -78.32014 32084 ft 392 kts 226°
2026-04-23 00:52 37.62627 -78.36497 32149 ft 408 kts 226°
2026-04-23 00:53 37.58177 -78.41154 32266 ft 422 kts 225°
2026-04-23 00:53 37.53583 -78.45955 32378 ft 436 kts 225°
2026-04-23 00:54 37.48845 -78.50901 32505 ft 449 kts 225°
2026-04-23 00:54 37.43959 -78.55983 32611 ft 461 kts 224°
2026-04-23 00:55 37.38945 -78.61152 32861 ft 469 kts 224°
2026-04-23 00:55 37.36412 -78.63755 33129 ft 469 kts 224°
2026-04-23 00:55 37.33882 -78.66355 33384 ft 470 kts 224°
2026-04-23 00:55 37.31358 -78.68948 33648 ft 470 kts 224°
2026-04-23 00:56 37.28826 -78.71548 33909 ft 470 kts 224°
2026-04-23 00:56 37.26298 -78.74144 34162 ft 469 kts 224°
2026-04-23 00:56 37.23771 -78.76736 34400 ft 469 kts 224°
2026-04-23 00:56 37.21248 -78.79323 34630 ft 468 kts 224°
2026-04-23 00:57 37.18725 -78.81907 34868 ft 467 kts 224°
2026-04-23 00:57 37.16204 -78.84487 35104 ft 466 kts 224°
2026-04-23 00:57 37.13697 -78.87050 35351 ft 465 kts 224°
2026-04-23 00:57 37.11192 -78.89609 35584 ft 464 kts 224°
2026-04-23 00:58 37.08694 -78.92159 35824 ft 463 kts 224°
2026-04-23 00:58 37.06196 -78.94706 36067 ft 462 kts 224°
2026-04-23 00:58 37.03699 -78.97252 36076 ft 465 kts 223°
2026-04-23 00:59 36.98693 -79.02350 36081 ft 467 kts 223°
2026-04-23 00:59 36.93675 -79.07450 36093 ft 463 kts 223°
2026-04-23 01:00 36.88704 -79.12544 36101 ft 460 kts 224°
2026-04-23 01:00 36.83764 -79.17615 36103 ft 458 kts 224°
2026-04-23 01:01 36.78844 -79.22655 36104 ft 457 kts 223°
2026-04-23 01:01 36.73932 -79.27673 36118 ft 457 kts 223°
2026-04-23 01:02 36.69003 -79.32701 36112 ft 458 kts 223°
2026-04-23 01:02 36.64061 -79.37732 36124 ft 459 kts 223°
2026-04-23 01:03 36.59103 -79.42769 36125 ft 461 kts 223°
2026-04-23 01:03 36.54111 -79.47834 36118 ft 463 kts 223°
2026-04-23 01:04 36.49110 -79.52898 36119 ft 464 kts 223°
2026-04-23 01:04 36.41602 -79.60485 36118 ft 466 kts 223°
2026-04-23 01:05 36.36566 -79.65562 36117 ft 465 kts 223°
2026-04-23 01:05 36.31568 -79.70593 36118 ft 465 kts 223°
2026-04-23 01:06 36.26545 -79.75641 36118 ft 464 kts 223°
2026-04-23 01:06 36.21532 -79.80670 36120 ft 463 kts 223°
2026-04-23 01:07 36.16532 -79.85679 36113 ft 462 kts 223°
2026-04-23 01:07 36.11530 -79.90682 36113 ft 461 kts 222°
2026-04-23 01:08 36.06535 -79.95663 36122 ft 461 kts 221°
2026-04-23 01:08 36.00930 -79.99609 36119 ft 467 kts 205°
2026-04-23 01:09 35.94918 -80.02516 36110 ft 468 kts 204°
2026-04-23 01:09 35.88843 -80.05428 36117 ft 468 kts 204°
2026-04-23 01:10 35.83761 -80.07911 36119 ft 469 kts 204°
2026-04-23 01:10 35.77702 -80.10900 36105 ft 469 kts 204°
2026-04-23 01:11 35.71633 -80.13896 36119 ft 470 kts 204°
2026-04-23 01:11 35.65561 -80.16885 36116 ft 471 kts 204°
2026-04-23 01:12 35.59465 -80.19879 36129 ft 471 kts 204°
2026-04-23 01:12 35.53370 -80.22868 36142 ft 471 kts 204°
2026-04-23 01:13 35.47284 -80.25848 36145 ft 471 kts 204°
2026-04-23 01:13 35.41227 -80.28808 36142 ft 471 kts 203°
2026-04-23 01:14 35.34876 -80.30798 36152 ft 473 kts 190°
2026-04-23 01:14 35.28348 -80.31966 36134 ft 473 kts 189°
2026-04-23 01:15 35.21839 -80.33121 36126 ft 472 kts 190°
2026-04-23 01:15 35.15338 -80.34327 36119 ft 472 kts 190°
2026-04-23 01:16 35.08845 -80.35557 36114 ft 471 kts 190°
2026-04-23 01:16 35.02364 -80.36786 36119 ft 471 kts 190°
2026-04-23 01:17 34.95927 -80.38003 36117 ft 471 kts 190°
2026-04-23 01:17 34.89460 -80.39222 36121 ft 470 kts 190°
2026-04-23 01:18 34.82998 -80.40437 36126 ft 470 kts 190°
2026-04-23 01:18 34.76517 -80.41655 36124 ft 470 kts 190°
2026-04-23 01:19 34.70052 -80.42868 36126 ft 470 kts 190°
2026-04-23 01:19 34.63593 -80.44077 36124 ft 470 kts 190°
2026-04-23 01:20 34.57135 -80.45285 36126 ft 470 kts 190°
2026-04-23 01:20 34.50676 -80.46491 36131 ft 470 kts 190°
2026-04-23 01:21 34.44248 -80.47689 36137 ft 470 kts 190°
2026-04-23 01:21 34.37783 -80.48892 36138 ft 470 kts 190°
2026-04-23 01:22 34.31316 -80.50094 36137 ft 470 kts 190°
2026-04-23 01:22 34.24856 -80.51349 36133 ft 469 kts 194°
2026-04-23 01:23 34.18499 -80.53186 36147 ft 469 kts 196°
2026-04-23 01:23 34.12180 -80.55156 36142 ft 469 kts 196°
2026-04-23 01:24 34.05839 -80.57093 36127 ft 469 kts 195°
2026-04-23 01:24 33.99547 -80.58976 36129 ft 469 kts 195°
2026-04-23 01:25 33.93216 -80.60857 36125 ft 469 kts 195°
2026-04-23 01:25 33.86881 -80.62737 36113 ft 468 kts 195°
2026-04-23 01:26 33.80549 -80.64615 36116 ft 468 kts 195°
2026-04-23 01:26 33.74214 -80.66492 36121 ft 468 kts 195°
2026-04-23 01:27 33.67894 -80.68362 36124 ft 467 kts 195°
2026-04-23 01:27 33.61581 -80.70227 36148 ft 467 kts 195°
2026-04-23 01:28 33.55271 -80.72088 36151 ft 466 kts 195°
2026-04-23 01:28 33.48970 -80.73944 36156 ft 466 kts 195°
2026-04-23 01:29 33.42668 -80.75797 36156 ft 466 kts 195°
2026-04-23 01:29 33.36422 -80.77633 36156 ft 465 kts 195°
2026-04-23 01:30 33.30128 -80.79480 36157 ft 465 kts 195°
2026-04-23 01:30 33.23835 -80.81324 36156 ft 464 kts 195°
2026-04-23 01:31 33.17560 -80.83161 36161 ft 464 kts 195°
2026-04-23 01:31 33.11294 -80.84992 36176 ft 464 kts 195°
2026-04-23 01:32 33.05013 -80.86824 36178 ft 464 kts 195°
2026-04-23 01:32 32.98782 -80.88640 36182 ft 464 kts 195°
2026-04-23 01:33 32.92513 -80.90463 36180 ft 464 kts 196°
2026-04-23 01:33 32.86239 -80.92286 36180 ft 464 kts 196°
2026-04-23 01:34 32.79969 -80.94105 36176 ft 463 kts 196°
2026-04-23 01:34 32.73691 -80.95923 36178 ft 463 kts 196°
2026-04-23 01:35 32.67422 -80.97737 36184 ft 465 kts 196°
2026-04-23 01:35 32.61133 -80.99555 36193 ft 472 kts 196°
2026-04-23 01:36 32.54694 -81.01406 36188 ft 479 kts 194°
2026-04-23 01:36 32.48009 -81.02151 36201 ft 487 kts 182°
2026-04-23 01:37 32.41213 -81.02138 36188 ft 490 kts 181°
2026-04-23 01:37 32.34384 -81.02194 36183 ft 491 kts 182°
2026-04-23 01:38 32.27541 -81.02313 36187 ft 491 kts 182°
2026-04-23 01:38 32.20715 -81.02434 36185 ft 490 kts 182°
2026-04-23 01:39 32.13934 -81.02554 36185 ft 489 kts 182°
2026-04-23 01:39 32.07084 -81.02674 36167 ft 488 kts 182°
2026-04-23 01:40 32.00345 -81.02792 36165 ft 487 kts 182°
2026-04-23 01:40 31.93570 -81.02961 36166 ft 486 kts 183°
2026-04-23 01:41 31.86815 -81.03173 36168 ft 485 kts 183°
2026-04-23 01:41 31.80066 -81.03378 36172 ft 485 kts 183°
2026-04-23 01:42 31.73322 -81.03574 36179 ft 484 kts 183°
2026-04-23 01:42 31.66584 -81.03769 36186 ft 484 kts 183°
2026-04-23 01:43 31.59884 -81.04324 36180 ft 481 kts 194°
2026-04-23 01:43 31.53626 -81.06874 36184 ft 474 kts 210°
2026-04-23 01:44 31.47823 -81.10549 36188 ft 474 kts 211°
2026-04-23 01:44 31.42035 -81.14162 36194 ft 474 kts 210°
2026-04-23 01:45 31.36186 -81.17717 36199 ft 474 kts 210°
2026-04-23 01:45 31.30276 -81.21213 35887 ft 479 kts 209°
2026-04-23 01:46 31.27291 -81.22975 35638 ft 478 kts 209°
2026-04-23 01:46 31.24328 -81.24728 35398 ft 478 kts 209°
2026-04-23 01:46 31.21338 -81.26431 35153 ft 480 kts 204°
2026-04-23 01:46 31.18121 -81.27667 34910 ft 483 kts 195°
2026-04-23 01:47 31.14838 -81.28345 34687 ft 486 kts 186°
2026-04-23 01:47 31.11455 -81.28458 34461 ft 488 kts 181°
2026-04-23 01:47 31.08058 -81.28413 34235 ft 489 kts 180°
2026-04-23 01:47 31.04650 -81.28341 33975 ft 490 kts 180°
2026-04-23 01:48 31.01249 -81.28279 33712 ft 490 kts 180°
2026-04-23 01:48 30.97828 -81.28235 33449 ft 490 kts 181°
2026-04-23 01:48 30.94427 -81.28209 33199 ft 490 kts 181°
2026-04-23 01:48 30.91010 -81.28194 32935 ft 489 kts 181°
2026-04-23 01:49 30.87611 -81.28185 32679 ft 489 kts 181°
2026-04-23 01:49 30.84210 -81.28176 32433 ft 488 kts 181°
2026-04-23 01:49 30.80810 -81.28167 32181 ft 487 kts 181°
2026-04-23 01:49 30.77423 -81.28157 31934 ft 486 kts 182°
2026-04-23 01:50 30.74044 -81.28146 31691 ft 486 kts 182°
2026-04-23 01:50 30.70654 -81.28135 31448 ft 485 kts 182°
2026-04-23 01:50 30.67278 -81.28123 31205 ft 485 kts 182°
2026-04-23 01:50 30.63900 -81.28112 30967 ft 485 kts 182°
2026-04-23 01:51 30.60532 -81.28100 30650 ft 486 kts 182°
2026-04-23 01:51 30.57130 -81.27988 30259 ft 489 kts 179°
2026-04-23 01:51 30.53752 -81.27754 29798 ft 483 kts 178°
2026-04-23 01:51 30.50407 -81.27468 29355 ft 483 kts 178°
2026-04-23 01:52 30.47086 -81.27175 28933 ft 486 kts 178°
2026-04-23 01:52 30.44807 -81.26978 28647 ft 488 kts 178°
2026-04-23 01:52 30.40301 -81.26607 28096 ft 491 kts 178°
2026-04-23 01:52 30.36889 -81.26341 27690 ft 492 kts 179°
2026-04-23 01:53 30.33476 -81.26082 27279 ft 493 kts 179°
2026-04-23 01:53 30.31153 -81.25908 27008 ft 493 kts 179°
2026-04-23 01:53 30.26616 -81.25571 26481 ft 495 kts 179°
2026-04-23 01:53 30.24304 -81.25399 26203 ft 486 kts 179°
2026-04-23 01:54 30.20997 -81.25150 25808 ft 468 kts 179°
2026-04-23 01:54 30.17836 -81.24912 25434 ft 456 kts 179°
2026-04-23 01:54 30.14648 -81.24674 25064 ft 453 kts 179°
2026-04-23 01:54 30.11589 -81.24446 24683 ft 439 kts 179°
2026-04-23 01:55 30.08578 -81.24222 24316 ft 431 kts 179°
2026-04-23 01:55 30.05584 -81.24001 23965 ft 431 kts 179°
2026-04-23 01:55 30.02580 -81.23780 23567 ft 431 kts 179°
2026-04-23 01:55 29.99592 -81.23559 23142 ft 430 kts 179°
2026-04-23 01:56 29.96611 -81.23338 22719 ft 428 kts 179°
2026-04-23 01:56 29.93651 -81.23118 22304 ft 425 kts 179°
2026-04-23 01:56 29.90708 -81.22900 21889 ft 422 kts 179°
2026-04-23 01:56 29.87782 -81.22682 21481 ft 418 kts 179°
2026-04-23 01:57 29.84886 -81.22468 21075 ft 415 kts 179°
2026-04-23 01:57 29.82012 -81.22255 20680 ft 412 kts 179°
2026-04-23 01:57 29.79161 -81.22044 20284 ft 409 kts 178°
2026-04-23 01:57 29.76332 -81.21835 19901 ft 407 kts 178°
2026-04-23 01:58 29.73516 -81.21627 19518 ft 405 kts 178°
2026-04-23 01:58 29.70713 -81.21419 19151 ft 402 kts 178°
2026-04-23 01:58 29.67999 -81.21201 18812 ft 389 kts 178°
2026-04-23 01:58 29.65352 -81.20972 18520 ft 375 kts 178°
2026-04-23 01:59 29.62778 -81.20745 18234 ft 369 kts 178°
2026-04-23 01:59 29.60220 -81.20522 17979 ft 369 kts 178°
2026-04-23 01:59 29.57659 -81.20301 17719 ft 369 kts 178°
2026-04-23 01:59 29.55101 -81.20081 17459 ft 368 kts 178°
2026-04-23 02:00 29.52544 -81.19861 17204 ft 367 kts 178°
2026-04-23 02:00 29.50003 -81.19644 16946 ft 366 kts 178°
2026-04-23 02:00 29.47468 -81.19427 16694 ft 365 kts 178°
2026-04-23 02:00 29.44945 -81.19211 16442 ft 363 kts 178°
2026-04-23 02:01 29.42430 -81.18996 16192 ft 361 kts 178°
2026-04-23 02:01 29.39931 -81.18782 15945 ft 359 kts 178°
2026-04-23 02:01 29.37444 -81.18570 15702 ft 357 kts 178°
2026-04-23 02:01 29.34969 -81.18359 15450 ft 356 kts 178°
2026-04-23 02:02 29.32484 -81.18147 15057 ft 358 kts 177°
2026-04-23 02:02 29.30020 -81.17937 14670 ft 352 kts 177°
2026-04-23 02:02 29.27633 -81.17729 14314 ft 346 kts 177°
2026-04-23 02:02 29.25239 -81.17518 13970 ft 345 kts 177°
2026-04-23 02:03 29.22839 -81.17306 13584 ft 345 kts 177°
2026-04-23 02:03 29.20456 -81.17096 13196 ft 340 kts 177°
2026-04-23 02:03 29.18145 -81.16746 12770 ft 331 kts 165°
2026-04-23 02:03 29.16018 -81.15866 12410 ft 320 kts 160°
2026-04-23 02:04 29.13969 -81.14948 12026 ft 312 kts 160°
2026-04-23 02:04 29.11972 -81.14061 11639 ft 304 kts 160°
2026-04-23 02:04 29.10012 -81.13208 11272 ft 297 kts 160°
2026-04-23 02:04 29.08097 -81.12385 10915 ft 293 kts 160°
2026-04-23 02:05 29.06187 -81.11570 10567 ft 294 kts 160°
2026-04-23 02:05 29.04269 -81.10755 10222 ft 294 kts 160°
2026-04-23 02:05 29.02335 -81.10001 9846 ft 294 kts 162°
2026-04-23 02:05 29.00418 -81.09285 9525 ft 285 kts 162°
2026-04-23 02:06 28.98563 -81.08591 9493 ft 279 kts 162°
2026-04-23 02:06 28.96699 -81.07990 9485 ft 279 kts 170°
2026-04-23 02:06 28.94753 -81.07733 9297 ft 286 kts 175°
2026-04-23 02:06 28.92755 -81.07544 8909 ft 289 kts 175°
2026-04-23 02:07 28.90769 -81.07342 8513 ft 283 kts 174°
2026-04-23 02:07 28.88830 -81.07248 8117 ft 278 kts 188°
2026-04-23 02:07 28.87043 -81.07941 7869 ft 268 kts 210°
2026-04-23 02:07 28.85525 -81.09106 7629 ft 259 kts 215°
2026-04-23 02:08 28.84084 -81.10284 7405 ft 250 kts 215°
2026-04-23 02:08 28.82693 -81.11414 7229 ft 241 kts 215°
2026-04-23 02:08 28.81331 -81.12508 7091 ft 239 kts 214°
2026-04-23 02:08 28.79969 -81.13594 7017 ft 238 kts 214°
2026-04-23 02:09 28.78627 -81.14661 7020 ft 231 kts 214°
2026-04-23 02:09 28.77310 -81.15705 6843 ft 234 kts 214°
2026-04-23 02:09 28.75913 -81.16660 6588 ft 233 kts 208°
2026-04-23 02:09 28.74495 -81.17529 6245 ft 229 kts 207°
2026-04-23 02:10 28.73117 -81.18362 5898 ft 225 kts 207°
2026-04-23 02:10 28.71912 -81.19093 5606 ft 221 kts 206°
2026-04-23 02:10 28.70571 -81.19909 5241 ft 216 kts 206°
2026-04-23 02:10 28.69256 -81.20712 4886 ft 213 kts 206°
2026-04-23 02:11 28.67963 -81.21504 4528 ft 210 kts 205°
2026-04-23 02:11 28.66686 -81.22288 4172 ft 207 kts 205°
2026-04-23 02:11 28.65425 -81.23062 3821 ft 205 kts 205°
2026-04-23 02:11 28.64175 -81.23830 3475 ft 203 kts 204°
2026-04-23 02:12 28.62939 -81.24590 3163 ft 199 kts 204°
2026-04-23 02:12 28.61737 -81.25329 2911 ft 194 kts 204°
2026-04-23 02:12 28.60564 -81.26050 2650 ft 189 kts 204°
2026-04-23 02:12 28.59458 -81.26732 2527 ft 178 kts 203°
2026-04-23 02:13 28.58382 -81.27393 2493 ft 174 kts 203°
2026-04-23 02:13 28.57306 -81.28025 2496 ft 173 kts 195°
2026-04-23 02:13 28.56138 -81.28205 2410 ft 169 kts 180°
2026-04-23 02:13 28.54990 -81.28314 2205 ft 156 kts 179°
2026-04-23 02:14 28.54028 -81.28369 2095 ft 149 kts 177°
2026-04-23 02:14 28.52972 -81.28394 1944 ft 154 kts 174°
2026-04-23 02:14 28.51910 -81.28343 1840 ft 152 kts 173°
2026-04-23 02:14 28.50847 -81.28300 1615 ft 154 kts 173°
2026-04-23 02:15 28.48797 -81.28282 1101 ft 139 kts 175°
2026-04-23 02:15 28.47848 -81.28264 889 ft 149 kts 175°
2026-04-23 02:15 28.46796 -81.28261 680 ft 148 kts 179°
2026-04-23 02:16 28.45782 -81.28269 419 ft 150 kts 176°
2026-04-23 02:16 28.44727 -81.28258 213 ft 149 kts 177°
2026-04-23 02:16 28.43726 -81.28248 105 ft 121 kts 179°
2026-04-23 02:16 28.43034 -81.28242 101 ft 81 kts 180°
2026-04-23 02:17 28.42668 -81.28242 104 ft 27 kts 185°
2026-04-23 02:17 28.42545 -81.28305 106 ft 12 kts 227°
2026-04-23 02:17 28.42532 -81.28331 106 ft 0 kts 246°
2026-04-23 02:17 28.42514 -81.28383 105 ft 10 kts 250°
2026-04-23 02:18 28.42487 -81.28469 103 ft 12 kts 251°
2026-04-23 02:18 28.42460 -81.28558 104 ft 12 kts 251°
2026-04-23 02:18 28.42433 -81.28644 103 ft 12 kts 250°
2026-04-23 02:18 28.42403 -81.28741 104 ft 14 kts 250°
2026-04-23 02:19 28.42371 -81.28843 105 ft 14 kts 251°
2026-04-23 02:19 28.42339 -81.28947 105 ft 14 kts 250°
2026-04-23 02:19 28.42308 -81.29048 106 ft 13 kts 252°
2026-04-23 02:19 28.42289 -81.29149 106 ft 13 kts 262°
2026-04-23 02:20 28.42284 -81.29256 104 ft 16 kts 268°
2026-04-23 02:20 28.42283 -81.29380 103 ft 15 kts 270°
2026-04-23 02:20 28.42282 -81.29510 99 ft 18 kts 269°
2026-04-23 02:20 28.42281 -81.29639 98 ft 13 kts 272°
2026-04-23 02:21 28.42284 -81.29661 99 ft 0 kts 281°
2026-04-23 02:21 28.42280 -81.29724 100 ft 14 kts 266°
2026-04-23 02:22 28.42337 -81.29792 101 ft 13 kts 354°
2026-04-23 02:22 28.42428 -81.29795 101 ft 13 kts 359°
2026-04-23 02:22 28.42517 -81.29796 102 ft 13 kts 359°
2026-04-23 02:22 28.42603 -81.29797 102 ft 12 kts 359°
2026-04-23 02:23 28.42688 -81.29798 102 ft 12 kts 359°
2026-04-23 02:23 28.42775 -81.29799 102 ft 13 kts
2026-04-23 02:23 28.42872 -81.29799 102 ft 15 kts 360°
2026-04-23 02:23 28.42981 -81.29800 102 ft 16 kts 359°
2026-04-23 02:24 28.43099 -81.29803 102 ft 18 kts 359°
2026-04-23 02:24 28.43227 -81.29804 102 ft 19 kts 360°
2026-04-23 02:24 28.43338 -81.29804 102 ft 16 kts
2026-04-23 02:24 28.43425 -81.29822 102 ft 11 kts 312°
2026-04-23 02:25 28.43436 -81.29901 100 ft 10 kts 268°
2026-04-23 02:25 28.43416 -81.29950 99 ft 2 kts 236°
2026-04-23 02:25 28.43418 -81.29973 100 ft 4 kts 299°
2026-04-23 02:25 28.43430 -81.29996 99 ft 0 kts 292°